Time,TemperatureF,DewpointF,PressureIn,WindDirection,WindDirectionDegrees,WindSpeedMPH,WindSpeedGustMPH,Humidity,HourlyPrecipIn,Conditions,Clouds,dailyrainin,SoftwareType,DateUTC
2014-12-18 00:05:00,39.0,26.7,30.17,SSE,167,5.0,7.0,61,0.00,,,0.00,Wunderground v.1.15,2014-12-18 05:05:00,
2014-12-18 00:10:00,38.8,26.1,30.17,SSE,167,5.0,5.0,60,0.00,,,0.00,Wunderground v.1.15,2014-12-18 05:10:00,
2014-12-18 00:15:00,38.8,26.1,30.17,SSE,167,4.0,6.0,60,0.00,,,0.00,Wunderground v.1.15,2014-12-18 05:15:00,
2014-12-18 00:20:00,38.8,25.7,30.17,SSE,167,5.0,11.0,59,0.00,,,0.00,Wunderground v.1.15,2014-12-18 05:20:00,
2014-12-18 00:25:00,38.6,25.9,30.17,SSE,167,5.0,11.0,60,0.00,,,0.00,Wunderground v.1.15,2014-12-18 05:25:00,
2014-12-18 00:30:00,38.5,26.2,30.16,SSE,167,3.0,6.0,61,0.00,,,0.00,Wunderground v.1.15,2014-12-18 05:30:00,
2014-12-18 00:40:00,38.4,26.1,30.16,SSE,167,5.0,5.0,61,0.00,,,0.00,Wunderground v.1.15,2014-12-18 05:40:00,
2014-12-18 00:50:00,38.3,26.0,30.16,SSE,167,5.0,5.0,61,0.00,,,0.00,Wunderground v.1.15,2014-12-18 05:50:00,
2014-12-18 00:55:00,38.2,25.5,30.16,SSE,167,5.0,6.0,60,0.00,,,0.00,Wunderground v.1.15,2014-12-18 05:55:00,
2014-12-18 01:00:00,38.2,25.5,30.16,SSE,168,6.0,11.0,60,0.00,,,0.00,Wunderground v.1.15,2014-12-18 06:00:00,
2014-12-18 01:05:00,38.3,25.2,30.16,SSE,168,7.0,11.0,59,0.00,,,0.00,Wunderground v.1.15,2014-12-18 06:05:00,
2014-12-18 01:10:00,38.2,25.1,30.17,SSE,167,7.0,7.0,59,0.00,,,0.00,Wunderground v.1.15,2014-12-18 06:10:00,
2014-12-18 01:15:00,38.3,25.2,30.16,SSE,168,7.0,7.0,59,0.00,,,0.00,Wunderground v.1.15,2014-12-18 06:15:00,
2014-12-18 01:20:00,38.1,25.4,30.16,SSE,168,6.0,9.0,60,0.00,,,0.00,Wunderground v.1.15,2014-12-18 06:20:00,
2014-12-18 01:30:00,38.1,25.0,30.17,SSE,168,7.0,7.0,59,0.00,,,0.00,Wunderground v.1.15,2014-12-18 06:30:00,
2014-12-18 01:35:00,38.0,24.9,30.17,South,169,7.0,7.0,59,0.00,,,0.00,Wunderground v.1.15,2014-12-18 06:35:00,
2014-12-18 01:40:00,38.0,24.9,30.17,SSE,168,6.0,6.0,59,0.00,,,0.00,Wunderground v.1.15,2014-12-18 06:40:00,
2014-12-18 01:45:00,38.0,24.9,30.17,SSE,168,6.0,6.0,59,0.00,,,0.00,Wunderground v.1.15,2014-12-18 06:45:00,
2014-12-18 01:50:00,37.7,25.1,30.18,SSE,168,5.0,10.0,60,0.00,,,0.00,Wunderground v.1.15,2014-12-18 06:50:00,
2014-12-18 01:55:00,37.7,24.6,30.18,SSE,168,5.0,10.0,59,0.00,,,0.00,Wunderground v.1.15,2014-12-18 06:55:00,
2014-12-18 02:05:00,37.4,24.4,30.18,SSE,168,6.0,7.0,59,0.00,,,0.00,Wunderground v.1.15,2014-12-18 07:05:00,
2014-12-18 02:10:00,37.5,24.5,30.18,SSE,168,7.0,7.0,59,0.00,,,0.00,Wunderground v.1.15,2014-12-18 07:10:00,
2014-12-18 02:15:00,37.5,24.1,30.18,South,169,7.0,7.0,58,0.00,,,0.00,Wunderground v.1.15,2014-12-18 07:15:00,
2014-12-18 02:20:00,37.4,24.4,30.18,SSE,168,7.0,9.0,59,0.00,,,0.00,Wunderground v.1.15,2014-12-18 07:20:00,
2014-12-18 02:25:00,37.3,23.9,30.18,SSE,167,8.0,9.0,58,0.00,,,0.00,Wunderground v.1.15,2014-12-18 07:25:00,
2014-12-18 02:30:00,37.1,24.1,30.18,SSE,167,7.0,7.0,59,0.00,,,0.00,Wunderground v.1.15,2014-12-18 07:30:00,
2014-12-18 02:35:00,37.0,24.0,30.18,SSE,167,7.0,9.0,59,0.00,,,0.00,Wunderground v.1.15,2014-12-18 07:35:00,
2014-12-18 02:45:00,36.9,23.9,30.19,SSE,168,7.0,8.0,59,0.00,,,0.00,Wunderground v.1.15,2014-12-18 07:45:00,
2014-12-18 02:50:00,36.8,24.2,30.19,SSE,168,6.0,6.0,60,0.00,,,0.00,Wunderground v.1.15,2014-12-18 07:50:00,
2014-12-18 02:55:00,36.7,24.1,30.19,SSE,168,6.0,9.0,60,0.00,,,0.00,Wunderground v.1.15,2014-12-18 07:55:00,
2014-12-18 03:00:00,36.5,23.9,30.19,South,169,6.0,6.0,60,0.00,,,0.00,Wunderground v.1.15,2014-12-18 08:00:00,
2014-12-18 03:15:00,36.2,24.0,30.19,South,169,4.0,6.0,61,0.00,,,0.00,Wunderground v.1.15,2014-12-18 08:15:00,
2014-12-18 03:25:00,35.8,23.7,30.20,South,169,1.0,6.0,61,0.00,,,0.00,Wunderground v.1.15,2014-12-18 08:25:00,
2014-12-18 03:30:00,35.2,23.5,30.20,South,169,1.0,1.0,62,0.00,,,0.00,Wunderground v.1.15,2014-12-18 08:30:00,
2014-12-18 03:35:00,34.7,23.8,30.20,South,169,1.0,2.0,64,0.00,,,0.00,Wunderground v.1.15,2014-12-18 08:35:00,
2014-12-18 03:40:00,34.2,23.7,30.20,South,169,1.0,1.0,65,0.00,,,0.00,Wunderground v.1.15,2014-12-18 08:40:00,
2014-12-18 03:45:00,33.7,23.5,30.20,South,169,1.0,6.0,66,0.00,,,0.00,Wunderground v.1.15,2014-12-18 08:45:00,
2014-12-18 03:50:00,34.1,23.6,30.20,SSE,168,1.0,1.0,65,0.00,,,0.00,Wunderground v.1.15,2014-12-18 08:50:00,
2014-12-18 04:00:00,34.5,23.9,30.20,South,169,1.0,6.0,65,0.00,,,0.00,Wunderground v.1.15,2014-12-18 09:00:00,
2014-12-18 04:05:00,34.8,23.9,30.21,South,169,1.0,6.0,64,0.00,,,0.00,Wunderground v.1.15,2014-12-18 09:05:00,
2014-12-18 04:10:00,34.9,23.9,30.20,South,169,1.0,6.0,64,0.00,,,0.00,Wunderground v.1.15,2014-12-18 09:10:00,
2014-12-18 04:15:00,35.0,23.7,30.20,South,169,1.0,6.0,63,0.00,,,0.00,Wunderground v.1.15,2014-12-18 09:15:00,
2014-12-18 04:20:00,34.5,23.6,30.20,South,169,1.0,6.0,64,0.00,,,0.00,Wunderground v.1.15,2014-12-18 09:20:00,
2014-12-18 04:25:00,34.9,23.9,30.20,South,169,2.0,6.0,64,0.00,,,0.00,Wunderground v.1.15,2014-12-18 09:25:00,
2014-12-18 04:30:00,35.1,23.4,30.21,SSE,168,4.0,4.0,62,0.00,,,0.00,Wunderground v.1.15,2014-12-18 09:30:00,
2014-12-18 04:40:00,35.5,23.4,30.21,South,169,4.0,4.0,61,0.00,,,0.00,Wunderground v.1.15,2014-12-18 09:40:00,
2014-12-18 04:45:00,35.6,23.9,30.22,SSE,168,4.0,5.0,62,0.00,,,0.00,Wunderground v.1.15,2014-12-18 09:45:00,
2014-12-18 04:50:00,35.4,23.7,30.22,SSE,168,2.0,2.0,62,0.00,,,0.00,Wunderground v.1.15,2014-12-18 09:50:00,
2014-12-18 04:55:00,35.1,23.4,30.22,South,169,2.0,4.0,62,0.00,,,0.00,Wunderground v.1.15,2014-12-18 09:55:00,
2014-12-18 05:00:00,34.9,22.8,30.22,SSE,168,2.0,6.0,61,0.00,,,0.00,Wunderground v.1.15,2014-12-18 10:00:00,
2014-12-18 05:05:00,35.0,22.9,30.22,SSE,168,3.0,6.0,61,0.00,,,0.00,Wunderground v.1.15,2014-12-18 10:05:00,
2014-12-18 05:10:00,35.0,22.9,30.22,SSE,168,3.0,6.0,61,0.00,,,0.00,Wunderground v.1.15,2014-12-18 10:10:00,
2014-12-18 05:20:00,34.8,23.1,30.22,SSE,168,1.0,1.0,62,0.00,,,0.00,Wunderground v.1.15,2014-12-18 10:20:00,
2014-12-18 05:25:00,34.4,22.7,30.23,SSE,168,1.0,6.0,62,0.00,,,0.00,Wunderground v.1.15,2014-12-18 10:25:00,
2014-12-18 05:30:00,34.0,23.1,30.23,SSE,168,1.0,6.0,64,0.00,,,0.00,Wunderground v.1.15,2014-12-18 10:30:00,
2014-12-18 05:35:00,33.4,23.3,30.23,SSE,168,1.0,6.0,66,0.00,,,0.00,Wunderground v.1.15,2014-12-18 10:35:00,
2014-12-18 05:40:00,33.0,23.2,30.23,SSE,168,1.0,6.0,67,0.00,,,0.00,Wunderground v.1.15,2014-12-18 10:40:00,
2014-12-18 05:45:00,33.4,22.9,30.23,South,169,1.0,6.0,65,0.00,,,0.00,Wunderground v.1.15,2014-12-18 10:45:00,
2014-12-18 05:50:00,33.9,23.0,30.24,SSE,168,1.0,6.0,64,0.00,,,0.00,Wunderground v.1.15,2014-12-18 10:50:00,
2014-12-18 05:55:00,33.6,23.1,30.24,SSE,168,0.0,6.0,65,0.00,,,0.00,Wunderground v.1.15,2014-12-18 10:55:00,
2014-12-18 06:05:00,33.1,22.2,30.24,SSE,168,0.0,6.0,64,0.00,,,0.00,Wunderground v.1.15,2014-12-18 11:05:00,
2014-12-18 06:10:00,33.5,22.2,30.24,SSE,168,0.0,6.0,63,0.00,,,0.00,Wunderground v.1.15,2014-12-18 11:10:00,
2014-12-18 06:15:00,34.1,23.2,30.24,SSE,168,1.0,6.0,64,0.00,,,0.00,Wunderground v.1.15,2014-12-18 11:15:00,
2014-12-18 06:20:00,34.2,22.5,30.24,South,169,1.0,6.0,62,0.00,,,0.00,Wunderground v.1.15,2014-12-18 11:20:00,
2014-12-18 06:25:00,33.7,22.4,30.24,SSE,168,1.0,6.0,63,0.00,,,0.00,Wunderground v.1.15,2014-12-18 11:25:00,
2014-12-18 06:30:00,34.0,22.3,30.24,SSE,168,2.0,6.0,62,0.00,,,0.00,Wunderground v.1.15,2014-12-18 11:30:00,
2014-12-18 06:35:00,34.3,22.2,30.24,SSE,168,2.0,6.0,61,0.00,,,0.00,Wunderground v.1.15,2014-12-18 11:35:00,
2014-12-18 06:45:00,34.4,22.7,30.24,SSE,168,2.0,6.0,62,0.00,,,0.00,Wunderground v.1.15,2014-12-18 11:45:00,
2014-12-18 06:50:00,34.1,22.0,30.24,SSE,168,1.0,1.0,61,0.00,,,0.00,Wunderground v.1.15,2014-12-18 11:50:00,
2014-12-18 06:55:00,33.4,22.1,30.24,SSE,168,0.0,6.0,63,0.00,,,0.00,Wunderground v.1.15,2014-12-18 11:55:00,
2014-12-18 07:00:00,32.8,22.0,30.24,SSE,168,0.0,6.0,64,0.00,,,0.00,Wunderground v.1.15,2014-12-18 12:00:00,
2014-12-18 07:10:00,34.1,22.4,30.25,South,169,1.0,6.0,62,0.00,,,0.00,Wunderground v.1.15,2014-12-18 12:10:00,
2014-12-18 07:15:00,34.2,22.5,30.26,SSE,168,1.0,6.0,62,0.00,,,0.00,Wunderground v.1.15,2014-12-18 12:15:00,
2014-12-18 07:20:00,33.6,22.3,30.26,SSE,168,2.0,2.0,63,0.00,,,0.00,Wunderground v.1.15,2014-12-18 12:20:00,
2014-12-18 07:30:00,33.4,22.5,30.26,South,169,2.0,6.0,64,0.00,,,0.00,Wunderground v.1.15,2014-12-18 12:30:00,
2014-12-18 07:35:00,33.7,23.2,30.26,SSE,168,2.0,6.0,65,0.00,,,0.00,Wunderground v.1.15,2014-12-18 12:35:00,
2014-12-18 07:45:00,33.7,22.8,30.26,South,169,2.0,6.0,64,0.00,,,0.00,Wunderground v.1.15,2014-12-18 12:45:00,
2014-12-18 07:50:00,33.9,22.6,30.26,SSE,168,2.0,6.0,63,0.00,,,0.00,Wunderground v.1.15,2014-12-18 12:50:00,
2014-12-18 07:55:00,34.1,22.8,30.26,South,169,2.0,6.0,63,0.00,,,0.00,Wunderground v.1.15,2014-12-18 12:55:00,
2014-12-18 08:00:00,33.8,22.5,30.26,South,169,1.0,1.0,63,0.00,,,0.00,Wunderground v.1.15,2014-12-18 13:00:00,
2014-12-18 08:05:00,33.7,22.4,30.26,South,169,0.0,6.0,63,0.00,,,0.00,Wunderground v.1.15,2014-12-18 13:05:00,
2014-12-18 08:15:00,34.3,23.0,30.26,South,169,1.0,6.0,63,0.00,,,0.00,Wunderground v.1.15,2014-12-18 13:15:00,
2014-12-18 08:25:00,33.4,22.5,30.27,SSE,168,1.0,6.0,64,0.00,,,0.00,Wunderground v.1.15,2014-12-18 13:25:00,
2014-12-18 08:30:00,33.2,22.7,30.27,SSE,168,0.0,6.0,65,0.00,,,0.00,Wunderground v.1.15,2014-12-18 13:30:00,
2014-12-18 08:35:00,33.2,22.7,30.27,SSE,168,0.0,6.0,65,0.00,,,0.00,Wunderground v.1.15,2014-12-18 13:35:00,
2014-12-18 08:40:00,33.3,22.8,30.27,South,169,0.0,6.0,65,0.00,,,0.00,Wunderground v.1.15,2014-12-18 13:40:00,
2014-12-18 08:50:00,34.8,23.9,30.27,SSE,168,1.0,6.0,64,0.00,,,0.00,Wunderground v.1.15,2014-12-18 13:50:00,
2014-12-18 08:55:00,34.4,23.5,30.27,SSE,168,1.0,6.0,64,0.00,,,0.00,Wunderground v.1.15,2014-12-18 13:55:00,
2014-12-18 09:00:00,34.1,23.6,30.27,SSE,168,1.0,6.0,65,0.00,,,0.00,Wunderground v.1.15,2014-12-18 14:00:00,
2014-12-18 09:10:00,35.0,23.7,30.27,South,169,3.0,3.0,63,0.00,,,0.00,Wunderground v.1.15,2014-12-18 14:10:00,
2014-12-18 09:15:00,35.2,23.5,30.27,South,169,2.0,6.0,62,0.00,,,0.00,Wunderground v.1.15,2014-12-18 14:15:00,
2014-12-18 09:25:00,35.2,23.1,30.26,South,169,2.0,6.0,61,0.00,,,0.00,Wunderground v.1.15,2014-12-18 14:25:00,
2014-12-18 09:30:00,35.4,22.9,30.26,SSE,168,1.0,6.0,60,0.00,,,0.00,Wunderground v.1.15,2014-12-18 14:30:00,
2014-12-18 09:35:00,35.7,22.8,30.27,SSE,168,2.0,6.0,59,0.00,,,0.00,Wunderground v.1.15,2014-12-18 14:35:00,
2014-12-18 09:40:00,36.0,23.4,30.27,South,169,2.0,2.0,60,0.00,,,0.00,Wunderground v.1.15,2014-12-18 14:40:00,
2014-12-18 09:50:00,36.0,23.4,30.28,SSE,168,2.0,2.0,60,0.00,,,0.00,Wunderground v.1.15,2014-12-18 14:50:00,
2014-12-18 09:55:00,36.0,23.4,30.28,SSE,168,1.0,6.0,60,0.00,,,0.00,Wunderground v.1.15,2014-12-18 14:55:00,
2014-12-18 10:00:00,35.7,22.8,30.28,South,169,2.0,6.0,59,0.00,,,0.00,Wunderground v.1.15,2014-12-18 15:00:00,
2014-12-18 10:05:00,35.7,23.2,30.29,SSE,168,3.0,6.0,60,0.00,,,0.00,Wunderground v.1.15,2014-12-18 15:05:00,
2014-12-18 10:15:00,35.7,23.9,30.28,South,169,3.0,6.0,62,0.00,,,0.00,Wunderground v.1.15,2014-12-18 15:15:00,
2014-12-18 10:20:00,35.8,23.7,30.29,South,169,3.0,3.0,61,0.00,,,0.00,Wunderground v.1.15,2014-12-18 15:20:00,
2014-12-18 10:30:00,36.0,23.8,30.28,SSE,168,3.0,3.0,61,0.00,,,0.00,Wunderground v.1.15,2014-12-18 15:30:00,
2014-12-18 10:35:00,35.9,23.7,30.28,SSE,168,4.0,4.0,61,0.00,,,0.00,Wunderground v.1.15,2014-12-18 15:35:00,
2014-12-18 10:40:00,36.0,23.8,30.28,SSE,168,4.0,6.0,61,0.00,,,0.00,Wunderground v.1.15,2014-12-18 15:40:00,
2014-12-18 10:45:00,35.9,24.1,30.28,South,169,4.0,6.0,62,0.00,,,0.00,Wunderground v.1.15,2014-12-18 15:45:00,
2014-12-18 10:50:00,35.9,24.1,30.28,South,169,4.0,6.0,62,0.00,,,0.00,Wunderground v.1.15,2014-12-18 15:50:00,
2014-12-18 11:00:00,36.4,24.6,30.27,South,169,4.0,4.0,62,0.00,,,0.00,Wunderground v.1.15,2014-12-18 16:00:00,
2014-12-18 11:05:00,36.8,24.6,30.27,SSE,168,3.0,6.0,61,0.00,,,0.00,Wunderground v.1.15,2014-12-18 16:05:00,
2014-12-18 11:10:00,36.8,24.2,30.27,SSE,168,4.0,6.0,60,0.00,,,0.00,Wunderground v.1.15,2014-12-18 16:10:00,
2014-12-18 11:15:00,37.0,24.4,30.27,South,169,4.0,6.0,60,0.00,,,0.00,Wunderground v.1.15,2014-12-18 16:15:00,
2014-12-18 11:25:00,37.0,24.4,30.26,South,169,5.0,6.0,60,0.00,,,0.00,Wunderground v.1.15,2014-12-18 16:25:00,
2014-12-18 11:30:00,37.1,24.5,30.25,South,169,5.0,5.0,60,0.00,,,0.00,Wunderground v.1.15,2014-12-18 16:30:00,
2014-12-18 11:40:00,37.3,24.3,30.25,South,169,4.0,4.0,59,0.00,,,0.00,Wunderground v.1.15,2014-12-18 16:40:00,
2014-12-18 11:45:00,37.3,24.3,30.25,SSE,168,5.0,5.0,59,0.00,,,0.00,Wunderground v.1.15,2014-12-18 16:45:00,
2014-12-18 11:50:00,37.2,24.2,30.24,South,169,5.0,7.0,59,0.00,,,0.00,Wunderground v.1.15,2014-12-18 16:50:00,
2014-12-18 11:55:00,37.2,24.2,30.24,South,169,5.0,7.0,59,0.00,,,0.00,Wunderground v.1.15,2014-12-18 16:55:00,
2014-12-18 12:00:00,37.1,24.1,30.24,South,169,5.0,5.0,59,0.00,,,0.00,Wunderground v.1.15,2014-12-18 17:00:00,
2014-12-18 12:05:00,37.5,24.5,30.23,South,169,5.0,6.0,59,0.00,,,0.00,Wunderground v.1.15,2014-12-18 17:05:00,
2014-12-18 12:10:00,37.6,24.1,30.23,South,169,4.0,6.0,58,0.00,,,0.00,Wunderground v.1.15,2014-12-18 17:10:00,
2014-12-18 12:20:00,37.9,24.4,30.22,South,169,5.0,7.0,58,0.00,,,0.00,Wunderground v.1.15,2014-12-18 17:20:00,
2014-12-18 12:25:00,38.1,24.6,30.22,South,169,5.0,7.0,58,0.00,,,0.00,Wunderground v.1.15,2014-12-18 17:25:00,
2014-12-18 12:30:00,38.2,24.3,30.22,South,169,6.0,6.0,57,0.00,,,0.00,Wunderground v.1.15,2014-12-18 17:30:00,
2014-12-18 12:40:00,38.6,24.2,30.20,South,169,5.0,5.0,56,0.00,,,0.00,Wunderground v.1.15,2014-12-18 17:40:00,
2014-12-18 12:45:00,38.7,24.3,30.20,South,169,5.0,6.0,56,0.00,,,0.00,Wunderground v.1.15,2014-12-18 17:45:00,
2014-12-18 12:50:00,39.0,24.6,30.21,South,169,4.0,7.0,56,0.00,,,0.00,Wunderground v.1.15,2014-12-18 17:50:00,
2014-12-18 12:55:00,38.9,24.5,30.20,South,169,4.0,7.0,56,0.00,,,0.00,Wunderground v.1.15,2014-12-18 17:55:00,
2014-12-18 13:00:00,39.1,24.7,30.20,South,169,4.0,6.0,56,0.00,,,0.00,Wunderground v.1.15,2014-12-18 18:00:00,
2014-12-18 13:10:00,38.9,24.5,30.19,South,169,5.0,5.0,56,0.00,,,0.00,Wunderground v.1.15,2014-12-18 18:10:00,
2014-12-18 13:15:00,39.3,24.9,30.19,South,169,4.0,6.0,56,0.00,,,0.00,Wunderground v.1.15,2014-12-18 18:15:00,
2014-12-18 13:20:00,39.4,24.6,30.19,South,169,3.0,6.0,55,0.00,,,0.00,Wunderground v.1.15,2014-12-18 18:20:00,
2014-12-18 13:30:00,39.6,24.7,30.18,South,169,4.0,6.0,55,0.00,,,0.00,Wunderground v.1.15,2014-12-18 18:30:00,
2014-12-18 13:35:00,39.7,24.8,30.18,South,169,4.0,6.0,55,0.00,,,0.00,Wunderground v.1.15,2014-12-18 18:35:00,
2014-12-18 13:40:00,39.9,25.0,30.17,South,169,4.0,6.0,55,0.00,,,0.00,Wunderground v.1.15,2014-12-18 18:40:00,
2014-12-18 13:45:00,40.0,24.7,30.18,South,169,4.0,6.0,54,0.00,,,0.00,Wunderground v.1.15,2014-12-18 18:45:00,
2014-12-18 13:50:00,40.1,25.2,30.17,South,169,3.0,6.0,55,0.00,,,0.00,Wunderground v.1.15,2014-12-18 18:50:00,
2014-12-18 14:00:00,40.9,25.5,30.18,South,169,3.0,6.0,54,0.00,,,0.00,Wunderground v.1.15,2014-12-18 19:00:00,
2014-12-18 14:05:00,41.1,25.3,30.19,South,169,3.0,6.0,53,0.00,,,0.00,Wunderground v.1.15,2014-12-18 19:05:00,
2014-12-18 14:10:00,40.9,25.1,30.19,South,169,4.0,4.0,53,0.00,,,0.00,Wunderground v.1.15,2014-12-18 19:10:00,
2014-12-18 14:15:00,40.8,25.0,30.19,South,169,4.0,6.0,53,0.00,,,0.00,Wunderground v.1.15,2014-12-18 19:15:00,
2014-12-18 14:20:00,40.8,25.0,30.18,South,169,4.0,4.0,53,0.00,,,0.00,Wunderground v.1.15,2014-12-18 19:20:00,
2014-12-18 14:30:00,41.9,26.0,30.18,South,169,2.0,2.0,53,0.00,,,0.00,Wunderground v.1.15,2014-12-18 19:30:00,
2014-12-18 14:35:00,42.1,25.3,30.18,South,169,2.0,5.0,51,0.00,,,0.00,Wunderground v.1.15,2014-12-18 19:35:00,
2014-12-18 14:40:00,41.9,25.1,30.17,South,169,4.0,6.0,51,0.00,,,0.00,Wunderground v.1.15,2014-12-18 19:40:00,
2014-12-18 14:45:00,42.2,25.3,30.17,South,169,4.0,6.0,51,0.00,,,0.00,Wunderground v.1.15,2014-12-18 19:45:00,
2014-12-18 14:50:00,42.6,25.2,30.17,South,169,3.0,6.0,50,0.00,,,0.00,Wunderground v.1.15,2014-12-18 19:50:00,
2014-12-18 14:55:00,42.6,25.2,30.17,South,169,4.0,6.0,50,0.00,,,0.00,Wunderground v.1.15,2014-12-18 19:55:00,
2014-12-18 15:00:00,42.9,25.5,30.16,South,169,3.0,3.0,50,0.00,,,0.00,Wunderground v.1.15,2014-12-18 20:00:00,
2014-12-18 15:10:00,43.1,25.2,30.16,South,169,3.0,6.0,49,0.00,,,0.00,Wunderground v.1.15,2014-12-18 20:10:00,
2014-12-18 15:15:00,43.5,25.6,30.16,South,169,2.0,6.0,49,0.00,,,0.00,Wunderground v.1.15,2014-12-18 20:15:00,
2014-12-18 15:25:00,43.3,25.4,30.16,South,169,3.0,6.0,49,0.00,,,0.00,Wunderground v.1.15,2014-12-18 20:25:00,
2014-12-18 15:30:00,42.9,25.5,30.16,South,169,3.0,6.0,50,0.00,,,0.00,Wunderground v.1.15,2014-12-18 20:30:00,
2014-12-18 15:35:00,42.6,25.2,30.17,South,169,3.0,6.0,50,0.00,,,0.00,Wunderground v.1.15,2014-12-18 20:35:00,
2014-12-18 15:40:00,42.5,25.1,30.17,South,169,3.0,6.0,50,0.00,,,0.00,Wunderground v.1.15,2014-12-18 20:40:00,
2014-12-18 15:45:00,42.5,25.1,30.17,South,169,3.0,6.0,50,0.00,,,0.00,Wunderground v.1.15,2014-12-18 20:45:00,
2014-12-18 15:55:00,43.1,25.7,30.16,South,169,1.0,4.0,50,0.00,,,0.00,Wunderground v.1.15,2014-12-18 20:55:00,
2014-12-18 16:00:00,42.9,25.0,30.16,South,169,1.0,6.0,49,0.00,,,0.00,Wunderground v.1.15,2014-12-18 21:00:00,
2014-12-18 16:10:00,42.8,25.4,30.16,South,169,1.0,1.0,50,0.00,,,0.00,Wunderground v.1.15,2014-12-18 21:10:00,
2014-12-18 16:15:00,42.9,25.5,30.16,South,169,1.0,2.0,50,0.00,,,0.00,Wunderground v.1.15,2014-12-18 21:15:00,
2014-12-18 16:20:00,42.9,25.5,30.16,South,169,1.0,6.0,50,0.00,,,0.00,Wunderground v.1.15,2014-12-18 21:20:00,
2014-12-18 16:30:00,42.8,25.4,30.17,South,169,2.0,6.0,50,0.00,,,0.00,Wunderground v.1.15,2014-12-18 21:30:00,
2014-12-18 16:35:00,42.9,26.0,30.17,South,169,2.0,6.0,51,0.00,,,0.00,Wunderground v.1.15,2014-12-18 21:35:00,
2014-12-18 16:40:00,42.9,25.5,30.17,South,169,2.0,6.0,50,0.00,,,0.00,Wunderground v.1.15,2014-12-18 21:40:00,
2014-12-18 16:45:00,42.7,25.8,30.16,South,169,2.0,6.0,51,0.00,,,0.00,Wunderground v.1.15,2014-12-18 21:45:00,
2014-12-18 16:55:00,42.5,25.6,30.16,South,169,1.0,6.0,51,0.00,,,0.00,Wunderground v.1.15,2014-12-18 21:55:00,
2014-12-18 17:05:00,42.4,25.5,30.17,South,169,2.0,6.0,51,0.00,,,0.00,Wunderground v.1.15,2014-12-18 22:05:00,
2014-12-18 17:10:00,42.3,25.9,30.17,South,169,3.0,3.0,52,0.00,,,0.00,Wunderground v.1.15,2014-12-18 22:10:00,
2014-12-18 17:15:00,42.3,25.9,30.18,South,169,2.0,6.0,52,0.00,,,0.00,Wunderground v.1.15,2014-12-18 22:15:00,
2014-12-18 17:20:00,42.4,26.0,30.18,South,169,2.0,2.0,52,0.00,,,0.00,Wunderground v.1.15,2014-12-18 22:20:00,